Location: Ciserano
(45.5833°N, 9.6000°E)
Time: 06:16:30
(UTC+00:00)

FENGYUN 3A - Pass Details

Date: 29 November 2020
Orbit: 823 x 837 km, 98.4° (Epoch: 27 January)

Event Time Altitude Azimuth Distance (km) Brightness Sun altitude
Rises 04:51:43 0° 6° (N) 3,392 6.8 -18.3°
Reaches altitude 10° 04:54:15 10° 358° (N) 2,452 6.0 -17.9°
Maximum altitude 04:59:08 35° 294° (WNW) 1,314 4.2 -17.0°
Drops below altitude 10° 05:03:58 10° 230° (SW) 2,429 5.8 -16.2°
Sets 05:06:28 0° 222° (SW) 3,356 6.6 -15.8°
